Regional Weather Roundup
Issued by NWS Cleveland, OH

Home | Current Version | Previous Version | Graphics & Text | Print | Product List | Glossary On
Versions: 1 2 3 4 5 6 7 8 9 10 11 12 13 14 15 16 17 18 19 20 21 22 23 24 25 26 27 28 29 30 31 32 33 34 35 36 37 38 39 40 41 42 43 44 45 46 47 48 49 50
000
ASUS41 KCLE 121510
RWRCLE
OHIO REGIONAL WEATHER ROUNDUP
NATIONAL WEATHER SERVICE WILMINGTON, OH
1000 AM EST FRI FEB 12 2016

NOTE: "FAIR" INDICATES FEW OR NO CLOUDS BELOW 12,000 FEET WITH NO
SIGNIFICANT WEATHER AND/OR OBSTRUCTIONS TO VISIBILITY.

OHZ001>008-015>018-024>027-034-035-043-044-121600-
   NORTHWEST OHIO

CITY           SKY/WX    TMP DP  RH WIND       PRES   REMARKS
DEFIANCE       CLOUDY    21   9  59 SW12      30.10F WCI   9
FINDLAY        CLOUDY    21  11  65 SW13      30.10F WCI   9
TOLEDO EXPRESS CLOUDY    19   8  62 SW10      30.08F WCI   7
TOLEDO EXEC      N/A    N/A N/A N/A MISG      30.09F
LIMA           CLOUDY    19  10  68 SW14      30.10F WCI   6
$$

OHZ009>014-019>023-028>033-038-089-121600-
   NORTHEAST OHIO

CITY           SKY/WX    TMP DP  RH WIND       PRES   REMARKS
CLE-HOPKINS    CLOUDY    17   7  64 SW10      30.12F WCI   5
CLE-LAKEFRONT  CLOUDY    19   8  62 S16       30.10F WCI   4
CUY CO. ARPT   CLOUDY    18   9  68 SW9       30.09F WCI   6
LORAIN-ELYRIA  CLOUDY    17   7  64 SW13      30.10F WCI   4
ASHTABULA      PTSUNNY   16   7  67 SW14      30.08F WCI   2
AKRON-CANTON   CLOUDY    15   7  70 SW9       30.09F WCI   3
WOOSTER        CLOUDY    15   8  73 SW8       30.10F WCI   4
MANSFIELD      CLOUDY    17   8  67 SW12      30.08F WCI   4
YOUNGSTOWN     CLOUDY    16   8  71 S7        30.08F WCI   6
$$

OHZ042-051>053-060>062-070>072-077>081-121600-
  SOUTHWEST OHIO

CITY           SKY/WX    TMP DP  RH WIND       PRES   REMARKS
CINC-COVINGTON FLURRIES  23  13  65 SW7       30.17S WCI  15
CINC-LUNKEN    CLOUDY    23  13  65 S7        30.21F WCI  15
HAMILTON       CLOUDY    22  14  71 CALM      30.18F
DAYTON         CLOUDY    19   9  65 SW8       30.13F WCI   9
WRIGHT-PAT AFB CLOUDY    19   7  60 S2        30.14F
DAYTON GENERAL CLOUDY    20   8  60 SW8       30.14S WCI  10
WILMINGTON     CLOUDY    19   9  65 SW9       30.13F WCI   8
$$

OHZ036-037-039>041-045>050-054>059-063>069-073>076-082>088-121600-
  CENTRAL AND SOUTHEAST OHIO

CITY           SKY/WX    TMP DP  RH WIND       PRES   REMARKS
COLUMBUS       CLOUDY    16   6  65 S5        30.16F WCI   9
OSU AIRPORT    CLOUDY    19   7  59 SW9       30.14F WCI   8
BOLTON FIELD   CLOUDY    16   9  73 S3        30.16S
RICKENBACK AFB FAIR      14   8  75 S6        30.16F WCI   5
NEWARK         CLOUDY    16   8  71 SW3       30.14F
MARION         CLOUDY    20   8  60 SW15      30.12F WCI   6
LANCASTER      CLOUDY    18   9  68 S5        30.15F WCI  11
ZANESVILLE     CLOUDY    15   8  73 SW3       30.15F
NEW PHILLY     CLOUDY    14   9  80 SE6       30.15F WCI   5
$$



USA.gov is the U.S. government's official web portal to all federal, state and local government web resources and services.